Location: Unspecified
(0.0000°N, 0.0000°E)
Time: 14:07:19
(UTC+00:00)

Vanguard 3 - Pass Details

Date: 10 December 2025
Orbit: 507 x 3207 km, 33.3° (Epoch: 22 January)

Event Time Altitude Azimuth Distance (km) Brightness Sun altitude
Rises 11:51:23 0° 257° (WSW) 6,542 11.8 67.0°
Reaches altitude 10° 11:57:15 10° 268° (W) 5,097 11.4 67.0°
Maximum altitude 12:07:53 27° 318° (NW) 2,962 10.2 66.8°
Drops below altitude 10° 12:14:55 10° 13° (NNE) 3,272 10.1 66.4°
Sets 12:17:47 0° 27° (NNE) 3,896 10.4 66.3°
